This is the latest recevied weather packets stored in our database for station/object KO4RMV-3. If no packets are shown the sender has not sent any weather packets the latest 10 day(s).
| Time | Temp. | Humidity | Pressure | Rain* | Wind** | Luminosity | Snow |
|---|---|---|---|---|---|---|---|
| 1777773605 | 11.67° C | 64% | - | 0 mm | - | - | - |
| 1777772705 | 11.67° C | 62% | - | 0 mm | - | - | - |
| 1777771805 | 11.67° C | 61% | - | 0 mm | - | - | - |
| 1777770905 | 11.67° C | 61% | - | 0 mm | - | - | - |
| 1777770005 | 12.22° C | 59% | - | 0 mm | - | - | - |
| 1777769106 | 12.22° C | 57% | - | 0 mm | - | - | - |
| 1777768206 | 12.22° C | 54% | - | 0 mm | - | - | - |
| 1777767306 | 12.78° C | 52% | - | 0 mm | - | - | - |
| 1777766406 | 13.33° C | 51% | - | 0 mm | - | - | - |
| 1777765506 | 13.89° C | 50% | - | 0 mm | - | - | - |
| 1777764606 | 14.44° C | 48% | - | 0 mm | - | - | - |
| 1777763706 | 14.44° C | 45% | - | 0 mm | - | - | - |
| 1777762805 | 15° C | 44% | - | 0 mm | - | - | - |
| 1777761905 | 15.56° C | 43% | - | 0 mm | - | - | - |
| 1777761005 | 15.56° C | 44% | - | 0 mm | - | - | - |
| 1777760105 | 15.56° C | 43% | - | 0 mm | - | - | - |
| 1777759205 | 15.56° C | 43% | - | 0 mm | - | - | - |
| 1777758305 | 15.56° C | 43% | - | 0 mm | - | - | - |
| 1777757405 | 16.11° C | 43% | - | 0 mm | - | - | - |
| 1777756505 | 16.67° C | 42% | - | 0 mm | - | - | - |
| 1777755605 | 16.67° C | 42% | - | 0 mm | - | - | - |
| 1777754705 | 16.67° C | 40% | - | 0 mm | - | - | - |
| 1777753805 | 17.22° C | 42% | - | 0 mm | - | - | - |
| 1777752905 | 16.11° C | 43% | - | 0 mm | - | - | - |
| 1777752006 | 16.11° C | 44% | - | 0 mm | - | - | - |
* Rain latest hour (hover to see other rain measurements)
** Current wind speed in m/s (hover to see current wind gust speed)